Meteo Giornale » Osservazioni meteo Stati Uniti (USA) » Mackinac Island
ore: 00:55 - Osservazioni Meteo Mackinac Island
Lat. 45° 51' N Lon. 84° 38' W Alt. 226 metri s.l.m.
17 °C
Foschia
Temp. 24 Ore
15 °C
18 °C
Nord
5.5 Km/h
Dew point 17 °C
Umidità 100 %
Visibilità 5 Km
Il sole sorge alle ore 06:59
Il sole tramonta alle ore 20:17
| Data e Ora | Cielo e Fenomeni | T °C | DP °C | Um. % | Pres. hPa | Vis. km | Vento km/h | |
|---|---|---|---|---|---|---|---|---|
| Oggi h: 00:55 | Foschia | 17 | 17 | 100 | 1012 | 5 | N 5.5 | |
| Oggi h: 00:35 | Nebbia | 17 | 17 | 100 | 1012 | 2 | N 5.5 | |
| Oggi h: 00:15 | Nebbia | 17 | 17 | 100 | 1012 | 2 | E/SE 9.3 | |
| Ieri h: 23:55 | Nebbia | 17 | 17 | 100 | 1012 | 2 | E 14.8 | |
| Ieri h: 23:35 | Foschia | 17 | 17 | 100 | 1012 | 5 | E 9.3 | |
| Ieri h: 23:15 | Foschia | 17 | 17 | 100 | 1012 | 5 | E 13 | |
| Ieri h: 22:56 | Foschia | 17 | 17 | 100 | 1011 | 5 | E 16.7 | |
| Ieri h: 22:35 | Nebbia | 17 | 17 | 100 | 1011 | 2 | E 18.5 | |
| Ieri h: 22:15 | Nebbia | 17 | 17 | 100 | 1012 | 2 | E 25.9 | |
| Ieri h: 21:55 | Nebbia | 17 | 17 | 100 | 1012 | 2 | E 14.8 | |
| Ieri h: 21:35 | Nebbia | 17 | 17 | 100 | 1012 | 2 | N 11.1 | |
| Ieri h: 21:15 | Nebbia | 18 | 18 | 100 | 1012 | 2 | E/NE 14.8 | |
| Ieri h: 20:55 | Nebbia | 18 | 18 | 100 | 1011 | 2 | E 20.3 | |
| Ieri h: 20:36 | Nebbia | 18 | 18 | 100 | 1011 | 2 | E 27.8 | |
| Ieri h: 20:15 | Nebbia | 18 | 18 | 100 | 1011 | 0 | E 24 | |
| Ieri h: 19:55 | Nebbia | 17 | 17 | 100 | 1011 | 0 | E 24 | |
| Ieri h: 19:35 | Nebbia | 17 | 17 | 100 | 1011 | 2 | E 31.5 | |
| Ieri h: 19:15 | Nebbia | 17 | 17 | 100 | 1011 | 0 | E 24 | |
| Ieri h: 18:55 | Nebbia | 17 | 17 | 100 | 1011 | 2 | E 24 | |
| Ieri h: 18:35 | Nebbia | 16 | 16 | 100 | 1011 | 2 | E 25.9 | |
| Ieri h: 18:16 | Nebbia | 16 | 16 | 100 | 1011 | 2 | E 25.9 | |
| Ieri h: 17:55 | Nebbia | 16 | 16 | 100 | 1011 | 2 | E 18.5 | |
| Ieri h: 17:35 | Foschia | 16 | 16 | 100 | 1011 | 2 | E 18.5 | |
| Ieri h: 17:15 | Foschia | 16 | 16 | 100 | 1011 | 5 | E 20.3 | |
| Ieri h: 16:55 | Foschia | 16 | 16 | 100 | 1011 | 2 | E 24 | |
| Ieri h: 16:35 | Foschia | 16 | 16 | 100 | 1011 | 3 | E 20.3 | |
| Ieri h: 16:15 | Foschia | 16 | 16 | 100 | 1011 | 2 | E 22.2 | |
| Ieri h: 15:56 | Nebbia | 16 | 16 | 100 | 1012 | 2 | E 24 | |
| Ieri h: 15:35 | Foschia | 16 | 16 | 100 | 1012 | 5 | E 20.3 | |
| Ieri h: 15:15 | Foschia | 17 | 16 | 93 | 1012 | 5 | E 25.9 | |
| Ieri h: 14:55 | Foschia | 17 | 16 | 93 | 1012 | 2 | E 20.3 | |
| Ieri h: 14:35 | Foschia | 17 | 17 | 100 | 1012 | 5 | E 18.5 | |
| Ieri h: 14:15 | Foschia | 18 | 17 | 93 | 1012 | 3 | E 14.8 | |
| Ieri h: 13:55 | Foschia | 18 | 17 | 93 | 1012 | 5 | E 18.5 | |
| Ieri h: 13:36 | Foschia | 18 | 18 | 100 | 1013 | 2 | E 18.5 | |
| Ieri h: 13:15 | Foschia | 18 | 18 | 100 | 1013 | 2 | E 16.7 | |
| Ieri h: 12:55 | Foschia | 18 | 18 | 100 | 1013 | 2 | E 11.1 | |
| Ieri h: 12:35 | Foschia | 18 | 18 | 100 | 1013 | 5 | E 16.7 | |
| Ieri h: 12:15 | Nebbia | 18 | 18 | 100 | 1014 | 0 | E 14.8 | |
| Ieri h: 11:55 | Nebbia | 18 | 18 | 100 | 1014 | 2 | N 9.3 | |
| Ieri h: 11:35 | Nebbia | 18 | 18 | 100 | 1014 | 0 | E 13 | |
| Ieri h: 11:16 | Nebbia | 18 | 18 | 100 | 1014 | 2 | E/SE 11.1 | |
| Ieri h: 10:55 | Nebbia | 18 | 18 | 100 | 1014 | 0 | E 9.3 | |
| Ieri h: 10:35 | Nebbia | 18 | 18 | 100 | 1014 | 0 | E/SE 9.3 | |
| Ieri h: 10:15 | Pioggia Nebbia | 18 | 18 | 100 | 1014 | 2 | E/SE 9.3 | |
| Ieri h: 09:55 | Foschia | 18 | 18 | 100 | 1014 | 5 | N 7.4 | |
| Ieri h: 09:35 | Pioggia Nebbia | 17 | 17 | 100 | 1014 | 2 | N 5.5 | |
| Ieri h: 09:15 | Nebbia | 17 | 17 | 100 | 1015 | 2 | SE 7.4 | |
| Ieri h: 08:56 | Nebbia | 17 | 17 | 100 | 1014 | 0 | E/SE 9.3 | |
| Ieri h: 08:35 | Nebbia | 17 | 17 | 100 | 1014 | 0 | E/SE 11.1 | |
| Ieri h: 08:15 | Nebbia | 16 | 16 | 100 | 1014 | 0 | E/SE 14.8 | |
| Ieri h: 07:55 | Nebbia | 16 | 16 | 100 | 1014 | 0 | E/SE 14.8 | |
| Ieri h: 07:35 | Nebbia | 16 | 16 | 100 | 1013 | 0 | E 18.5 | |
| Ieri h: 07:15 | Nebbia | 16 | 16 | 100 | 1012 | 0 | E 22.2 | |
| Ieri h: 06:55 | Nebbia | 16 | 16 | 100 | 1013 | 0 | E 16.7 | |
| Ieri h: 06:36 | Nebbia | 16 | 16 | 100 | 1014 | 2 | E/SE 16.7 | |
| Ieri h: 06:15 | Nebbia | 16 | 16 | 100 | 1014 | 2 | E/SE 18.5 | |
| Ieri h: 05:55 | Nebbia | 16 | 16 | 100 | 1014 | 2 | E 18.5 | |
| Ieri h: 05:35 | Nebbia | 16 | 16 | 100 | 1015 | 2 | E 14.8 | |
| Ieri h: 05:15 | Nebbia | 16 | 16 | 100 | 1015 | 2 | E 16.7 | |
| Ieri h: 04:55 | Pioviggine Nebbia | 16 | 16 | 100 | 1015 | 2 | E/SE 14.8 | |
| Ieri h: 04:35 | Foschia | 16 | 16 | 100 | 1015 | 5 | E/SE 14.8 | |
| Ieri h: 04:16 | Nebbia | 16 | 16 | 100 | 1015 | 2 | E/SE 18.5 | |
| Ieri h: 03:55 | Nebbia | 16 | 16 | 100 | 1015 | 2 | E 20.3 | |
| Ieri h: 03:35 | Nebbia | 16 | 16 | 100 | 1015 | 2 | E 16.7 | |
| Ieri h: 03:15 | Nebbia | 16 | 16 | 100 | 1015 | 2 | E 16.7 | |
| Ieri h: 02:55 | Nebbia | 16 | 16 | 100 | 1015 | 2 | E 16.7 | |
| Ieri h: 02:35 | Nebbia | 16 | 16 | 100 | 1015 | 2 | E 18.5 | |
| Ieri h: 02:15 | Nebbia | 15 | 15 | 100 | 1015 | 2 | E 18.5 | |
| Ieri h: 01:56 | Nebbia | 15 | 15 | 100 | 1015 | 2 | E 18.5 | |
| Ieri h: 01:35 | Nebbia | 15 | 15 | 100 | 1016 | 2 | E 20.3 | |



